When you browse on this site, cookies collect data to enhance your experience and personalize the content and advertising you see.
Visit our Privacy Policy to learn more. By continuing to use the site, you agree to this use of cookies and data.
EN

Hourly Weather Bijeljina

Today, 10 August, Monday

Time Temperature Precipitation Wind Pressure Humidity
00:00 +22°C° 0 mm 1 mps 753 mmHg 82%
01:00 +22°C° 0 mm 1 mps 753 mmHg 84%
02:00 +21°C° 0.1 mm 1 mps 753 mmHg 85%
03:00 +21°C° 0.1 mm 1 mps 753 mmHg 86%
04:00 +21°C° 0.1 mm 1 mps 753 mmHg 87%
05:00 +22°C° 0.1 mm 1 mps 753 mmHg 85%
06:00 +23°C° 0.1 mm 1 mps 753 mmHg 82%
07:00 +24°C° 0.1 mm 1 mps 753 mmHg 80%
08:00 +26°C° 0 mm 1 mps 753 mmHg 73%
09:00 +28°C° 0 mm 1 mps 753 mmHg 66%
10:00 +30°C° 0 mm 1 mps 754 mmHg 59%
11:00 +31°C° 0 mm 1 mps 753 mmHg 55%
12:00 +32°C° 0 mm 1 mps 753 mmHg 51%
13:00 +31°C° 0 mm 0 mps 752 mmHg 47%
14:00 +33°C° 0 mm 1 mps 752 mmHg 46%
15:00 +33°C° 0 mm 1 mps 752 mmHg 45%
16:00 +33°C° 0 mm 1 mps 752 mmHg 43%
17:00 +31°C° 0 mm 1 mps 752 mmHg 49%
18:00 +29°C° 0 mm 1 mps 752 mmHg 55%
19:00 +27°C° 0 mm 1 mps 752 mmHg 60%
20:00 +26°C° 0 mm 1 mps 753 mmHg 63%
21:00 +25°C° 0 mm 1 mps 753 mmHg 67%
22:00 +24°C° 0 mm 1 mps 753 mmHg 70%
23:00 +24°C° 0 mm 1 mps 753 mmHg 72%

Tomorrow, 11 August, Tuesday

Time Temperature Precipitation Wind Pressure Humidity
00:00 +23°C° 0 mm 1 mps 753 mmHg 73%
01:00 +23°C° 0 mm 1 mps 753 mmHg 75%
02:00 +23°C° 0 mm 1 mps 753 mmHg 77%
03:00 +22°C° 0 mm 1 mps 753 mmHg 78%
04:00 +22°C° 0 mm 1 mps 753 mmHg 79%
05:00 +23°C° 0 mm 1 mps 754 mmHg 76%
06:00 +24°C° 0 mm 1 mps 754 mmHg 73%
07:00 +26°C° 0 mm 1 mps 754 mmHg 69%
08:00 +26°C° 0 mm 0 mps 754 mmHg 63%
09:00 +28°C° 0 mm 0 mps 754 mmHg 58%
10:00 +30°C° 0 mm 0 mps 754 mmHg 52%
11:00 +31°C° 0 mm 0 mps 754 mmHg 48%
12:00 +34°C° 0 mm 1 mps 753 mmHg 44%
13:00 +34°C° 0 mm 1 mps 753 mmHg 40%
14:00 +34°C° 0 mm 1 mps 753 mmHg 40%
15:00 +34°C° 0 mm 1 mps 753 mmHg 40%
16:00 +34°C° 0 mm 1 mps 753 mmHg 41%
17:00 +32°C° 0 mm 1 mps 753 mmHg 46%
18:00 +30°C° 0 mm 1 mps 753 mmHg 51%
19:00 +27°C° 0 mm 1 mps 753 mmHg 56%
20:00 +27°C° 0 mm 1 mps 753 mmHg 59%
21:00 +26°C° 0 mm 1 mps 753 mmHg 62%
22:00 +25°C° 0 mm 1 mps 754 mmHg 65%
23:00 +24°C° 0 mm 1 mps 753 mmHg 67%

Day after tomorrow, 12 August, Wednesday

Time Temperature Precipitation Wind Pressure Humidity
00:00 +24°C° 0 mm 1 mps 753 mmHg 70%
01:00 +21°C° 0 mm 0 mps 753 mmHg 72%
02:00 +21°C° 0 mm 0 mps 753 mmHg 74%
03:00 +22°C° 0 mm 1 mps 753 mmHg 75%
04:00 +22°C° 0 mm 1 mps 753 mmHg 77%
05:00 +23°C° 0.3 mm 1 mps 753 mmHg 77%
06:00 +24°C° 0.3 mm 1 mps 753 mmHg 76%
07:00 +25°C° 0.3 mm 1 mps 753 mmHg 76%
08:00 +26°C° 0.2 mm 1 mps 754 mmHg 72%
09:00 +28°C° 0.2 mm 1 mps 754 mmHg 67%
10:00 +29°C° 0.2 mm 1 mps 754 mmHg 62%
11:00 +29°C° 0.9 mm 1 mps 754 mmHg 61%
12:00 +30°C° 0.9 mm 2 mps 753 mmHg 60%
13:00 +30°C° 0.9 mm 2 mps 753 mmHg 60%
14:00 +29°C° 0.3 mm 2 mps 753 mmHg 65%
15:00 +28°C° 0.3 mm 2 mps 753 mmHg 71%
16:00 +26°C° 0.3 mm 2 mps 753 mmHg 76%
17:00 +25°C° 0.5 mm 2 mps 754 mmHg 79%
18:00 +24°C° 0.5 mm 1 mps 754 mmHg 82%
19:00 +22°C° 0.5 mm 0 mps 754 mmHg 85%
20:00 +23°C° 0.7 mm 1 mps 754 mmHg 86%
21:00 +23°C° 0.7 mm 1 mps 754 mmHg 87%
22:00 +23°C° 0.7 mm 1 mps 755 mmHg 87%
23:00 +22°C° 0.1 mm 1 mps 755 mmHg 88%

13 August, Thursday

Time Temperature Precipitation Wind Pressure Humidity
00:00 +22°C° 0.1 mm 1 mps 755 mmHg 89%
01:00 +22°C° 0.1 mm 1 mps 755 mmHg 90%
02:00 +21°C° 0 mm 1 mps 754 mmHg 91%
03:00 +21°C° 0 mm 1 mps 754 mmHg 91%
04:00 +19°C° 0 mm 2 mps 754 mmHg 92%
05:00 +20°C° 0 mm 2 mps 755 mmHg 90%
06:00 +22°C° 0 mm 1 mps 755 mmHg 87%
07:00 +23°C° 0 mm 1 mps 755 mmHg 84%
08:00 +25°C° 0 mm 1 mps 755 mmHg 76%
09:00 +27°C° 0 mm 1 mps 755 mmHg 67%
10:00 +28°C° 0 mm 1 mps 755 mmHg 59%
11:00 +29°C° 0 mm 1 mps 755 mmHg 54%
12:00 +30°C° 0 mm 1 mps 755 mmHg 48%
13:00 +31°C° 0 mm 1 mps 754 mmHg 43%
14:00 +32°C° 0 mm 1 mps 754 mmHg 42%
15:00 +32°C° 0 mm 1 mps 754 mmHg 41%
16:00 +32°C° 0 mm 1 mps 753 mmHg 40%
17:00 +30°C° 0 mm 1 mps 754 mmHg 46%
18:00 +27°C° 0 mm 1 mps 754 mmHg 51%
19:00 +25°C° 0 mm 1 mps 754 mmHg 57%
20:00 +24°C° 0 mm 1 mps 754 mmHg 60%
21:00 +23°C° 0 mm 1 mps 754 mmHg 63%
22:00 +23°C° 0 mm 1 mps 754 mmHg 65%
23:00 +22°C° 0 mm 1 mps 754 mmHg 68%

14 August, Friday

Time Temperature Precipitation Wind Pressure Humidity
00:00 +22°C° 0 mm 1 mps 754 mmHg 71%
01:00 +21°C° 0 mm 1 mps 754 mmHg 73%
02:00 +21°C° 0 mm 1 mps 754 mmHg 76%
03:00 +20°C° 0 mm 1 mps 754 mmHg 78%
04:00 +20°C° 0 mm 1 mps 754 mmHg 81%
05:00 +21°C° 0 mm 1 mps 754 mmHg 77%
06:00 +23°C° 0 mm 1 mps 754 mmHg 73%
07:00 +24°C° 0 mm 1 mps 754 mmHg 69%
08:00 +26°C° 0 mm 2 mps 754 mmHg 61%
09:00 +28°C° 0 mm 2 mps 754 mmHg 54%
10:00 +30°C° 0 mm 3 mps 754 mmHg 46%
11:00 +31°C° 0 mm 2 mps 753 mmHg 43%
12:00 +32°C° 0 mm 2 mps 753 mmHg 40%
13:00 +34°C° 0 mm 2 mps 752 mmHg 37%
14:00 +34°C° 0 mm 2 mps 752 mmHg 37%
15:00 +34°C° 0 mm 2 mps 752 mmHg 37%
16:00 +34°C° 0 mm 2 mps 751 mmHg 38%
17:00 +30°C° 0 mm 1 mps 752 mmHg 44%
18:00 +28°C° 0 mm 1 mps 752 mmHg 49%
19:00 +24°C° 0 mm 0 mps 752 mmHg 55%
20:00 +25°C° 0 mm 1 mps 752 mmHg 59%
21:00 +24°C° 0 mm 1 mps 752 mmHg 63%
22:00 +23°C° 0 mm 1 mps 753 mmHg 67%
23:00 +22°C° 0 mm 1 mps 753 mmHg 71%

15 August, Saturday

Time Temperature Precipitation Wind Pressure Humidity
00:00 +21°C° 0 mm 1 mps 753 mmHg 74%
01:00 +21°C° 0 mm 1 mps 752 mmHg 78%
02:00 +20°C° 0 mm 1 mps 752 mmHg 80%
03:00 +20°C° 0 mm 1 mps 752 mmHg 83%
04:00 +20°C° 0 mm 1 mps 752 mmHg 85%
05:00 +21°C° 0 mm 1 mps 752 mmHg 81%
06:00 +22°C° 0 mm 1 mps 752 mmHg 76%
07:00 +23°C° 0 mm 1 mps 753 mmHg 72%
08:00 +25°C° 0 mm 1 mps 753 mmHg 66%
09:00 +27°C° 0 mm 2 mps 753 mmHg 60%
10:00 +29°C° 0 mm 2 mps 753 mmHg 54%
11:00 +30°C° 0 mm 1 mps 752 mmHg 50%
12:00 +31°C° 0 mm 1 mps 752 mmHg 46%
13:00 +33°C° 0 mm 1 mps 752 mmHg 43%
14:00 +33°C° 0 mm 1 mps 751 mmHg 42%
15:00 +33°C° 0 mm 1 mps 751 mmHg 41%
16:00 +32°C° 0 mm 1 mps 751 mmHg 41%
17:00 +30°C° 0 mm 1 mps 751 mmHg 48%
18:00 +28°C° 0 mm 1 mps 751 mmHg 54%
19:00 +26°C° 0 mm 1 mps 751 mmHg 61%
20:00 +25°C° 0 mm 1 mps 751 mmHg 64%
21:00 +24°C° 0 mm 1 mps 751 mmHg 66%
22:00 +24°C° 0 mm 1 mps 752 mmHg 68%
23:00 +23°C° 0 mm 1 mps 752 mmHg 70%
Show more